CHINASAT 6A (ZX 6A)

Last updated on June 17, 2019, 3:36 a.m. UTC

1 37150U 10042A   19167.54221593 -.00000361  00000-0  00000+0 0  9998
2 37150   0.0465 260.5583 0001899 258.7718  65.4268  1.00265648 32252
UTC
Height (km)
Latitude
Longitude
Inclination
Orbital Period
UTC large
Height (km)
Speed (km/s)
/
Latitude / Longitude
Inclination (degrees)
Orbital Period (minutes)
Azimuth
Elevation
Range (km)
Doppler Factor
iOS Compass Heading
iOS Angle

Next 30 passes for location: Hong Kong

Rise time Rise Azimuth (degrees) Set time Set Azimuth (degrees) Duration Max altitude (degrees)

No matching passes for this satellites